Lexington Weather

Lexington, Massachusetts, USA

40°F
11/27/2020 2:58am 
  • Lexington Conditions: Fog, Overcast
  • Temperature: 39.7°F / 4.3°CColder 0.6°F than last hour.
  • Dew Point: 39.0°FDecreased 0.6°Fsince last hour.
  • Relative Humidity: 97
  • Wind: Calm, 10-min avg: Calm, gust: None
  • Barometer: 29.97 in Steady
  • Visibility: ¼ mile
  • Rain Today: 0.00 in
  •   
Southeast Middlesex County - Special Weather Statement
 - SEE ALL NEARBY ALERTS -

Regional Weather Roundup
for Boston / Norton, MA

        
000
ASUS41 KBOX 241704
RWRBOX

REGIONAL WEATHER ROUNDUP
NATIONAL WEATHER SERVICE BOSTON/NORTON MA
1200 PM EST TUE NOV 24 2020

NOTE:  "FAIR" INDICATES FEW OR NO CLOUDS BELOW 12,000 FEET WITH NO 
SIGNIFICANT WEATHER AND/OR OBSTRUCTIONS TO VISIBILITY.

MAZALL-241800-
EASTERN MASSACHUSETTS
  
CITY           SKY/WX    TMP DP  RH WIND       PRES   REMARKS
BOSTON         MOSUNNY   43  20  39 NW15G22   30.25F                  
BEVERLY        SUNNY     43  23  45 NW14G23   30.23S                  
LAWRENCE       MOSUNNY   41  21  44 W16G22    30.26S                  
BEDFORD        MOSUNNY   43  22  43 NW10      30.24F                  
BLUE HILL        N/A     41  22  46 NW13G23   30.21F                  
NORWOOD        MOSUNNY   45  21  38 NW15G23   30.26S                  
MARSHFIELD     MOSUNNY   45  25  45 W12G20    30.24S                  
PLYMOUTH       MOSUNNY   42  23  46 NW13G24   30.24S                  
TAUNTON        MOSUNNY   45  23  42 NW12G17   30.25F                  
NEW BEDFORD    SUNNY     44  25  47 NW9G23    30.25F                  
$$

MAZALL-241800-
CAPE COD AND THE ISLANDS
  
CITY           SKY/WX    TMP DP  RH WIND       PRES   REMARKS
FALMOUTH       SUNNY     43  21  42 NW16G28   30.23F                  
HYANNIS        SUNNY     44  24  45 NW14G23   30.22R                  
CHATHAM        SUNNY     44  24  45 NW13G25   30.23S                  
PROVINCETOWN   MOSUNNY   43  26  51 NW14G23   30.24F                  
NANTUCKET      SUNNY     46  26  45 NW17G29   30.23F                  
MARTHAS VNYRD  SUNNY     45  25  45 NW17G24   30.24F                  
$$
 
MAZALL-241800-
CENTRAL AND WESTERN MASSACHUSETTS
  
CITY           SKY/WX    TMP DP  RH WIND       PRES   REMARKS
WORCESTER      MOSUNNY   40  21  46 W12       30.23F                  
FITCHBURG      SUNNY     42  20  41 NW17      30.26F                  
ORANGE         MOSUNNY   41  20  43 NW12      30.26F                  
SPRINGFIELD    NOT AVBL                                               
WESTFIELD      MOSUNNY   43  23  45 W10       30.28F                  
NORTH ADAMS    MOSUNNY   39  21  48 NW12G17   30.29S WCI  32          
PITTSFIELD     SUNNY     37  21  52 W13G20    30.25F WCI  29          
$$
 
RIZALL-241800-
RHODE ISLAND
  
CITY           SKY/WX    TMP DP  RH WIND       PRES   REMARKS
PROVIDENCE     MOSUNNY   44  22  41 NW14      30.27F                  
NEWPORT        SUNNY     42  25  50 NW12G23   30.26F                  
BLOCK ISLAND   MOSUNNY   43  25  49 NW9G17    30.28F                  
SMITHFIELD     MOSUNNY   42  24  49 VRB5      30.25F                  
WESTERLY       SUNNY     45  22  40 NW10G21   30.28F                  
$$
 
CTZALL-241800-
CONNECTICUT
  
CITY           SKY/WX    TMP DP  RH WIND       PRES   REMARKS
BRADLEY INTL   MOSUNNY   45  21  38 NW16      30.29F                  
HARTFORD       MOSUNNY   45  22  40 NW12      30.30F                  
BRIDGEPORT     SUNNY     48  25  40 NW13      30.31F                  
DANBURY        MOSUNNY   44  24  45 VRB3      30.31F                  
GROTON         SUNNY     46  24  42 NW13G25   30.28F                  
NEW HAVEN      SUNNY     48  25  40 N13       30.31F                  
CHESTER        FAIR      45  21  39 NW13G22   30.28F                  
MERIDEN        SUNNY     45  21  38 NW10G22   30.30F                  
WILLIMANTIC    SUNNY     42  22  44 W10G22    30.28F                  
OXFORD         MOSUNNY   42  24  49 NW15      30.29F                  
$$

MEZ002-015-021-024-NHZ003-005-008-011-012-014-VTZ005-008-241800-
NORTHERN NEW ENGLAND
  
CITY           SKY/WX    TMP DP  RH WIND       PRES   REMARKS
PORTLAND ME    MOSUNNY   38  18  44 N16       30.21R WCI  29          
BANGOR ME      MOSUNNY   32  12  43 NW23G32   30.12S WCI  19          
CONCORD NH     SUNNY     38  17  42 NW18G26   30.25S WCI  28          
MANCHESTER NH  MOSUNNY   40  16  37 NW15G23   30.24R WCI  32          
NASHUA NH      MOSUNNY   41  15  35 NW16G26   30.26S                  
PORTSMOUTH NH  MOSUNNY   42  17  36 NW20G28   30.21S                  
JAFFREY NH     SUNNY     38  17  42 VRB6G17   30.23S                  
KEENE NH       PTSUNNY   37  20  50 NW9       30.26F WCI  30          
BURLINGTON VT  FLURRIES  28  14  55 N10G21    30.37R WCI  19          
MT. WASHINGTON NOT AVBL                                               
$$

NYZ052-076-241800-
EASTERN NEW YORK
  
CITY           SKY/WX    TMP DP  RH WIND       PRES   REMARKS
ALBANY         MOSUNNY   38  20  48 W15       30.32F WCI  29          
NEW YORK CITY  MOSUNNY   48  25  40 NW17      30.33F                  
$$
 
ANZALL-241800-
MARINE OBSERVATIONS
  
STATION/POSITION TIME  TEMP    WIND        PRES    VSBY  WAVE
                       AIR SEA DIR/SP/G                  HT/PER
                 (UTC) (F)     (DEG/KT/KT) (MB)    (MI)  (FT/S)
BOSTON BUOY      1640   41 51  290/ 16/ 19 1024.6S
BUZZARDS BAY     1600          320/ 22/ 23 1025.6F
NANTUCKET SOUND  1640      51  320/ 17/ 21   N/A
MASS BAY-STELLWA NOT AVBL
ISLE OF SHOALS   1600   38     290/ 17/ 21 1022.9R
S OF BLOCK IS    1626      57                N/A           5/ 5
$$

......................KEY.........................
  SKY/WX - SKY CONDITION/PRESENT WEATHER
  TMP    - TEMPERATURE IN FAHRENHEIT
  DWPT   - DEWPOINT IN FAHRENHEIT
  RH     - RELATIVE HUMIDITY IN PERCENT
  WIND   - DIRECTION AND SPEED IN MPH
  PRES   - MEAN SEA LEVEL PRESSURE IN INCHES OF HG
  WCI    - WIND CHILL INDEX
  VSB    - VISIBILITY IN MILES
  HX     - HEAT INDEX
  TC     - TEMPERATURE IN CELSIUS
  VRB    - VARIABLE WIND DIRECTION
  N/A    - NOT AVAILABLE
  
      

Other recent Regional Weather Roundups

Thu Nov 26, 11:04pm

Thu Nov 26, 10:04pm

Thu Nov 26, 9:04pm

Thu Nov 26, 8:04pm

Thu Nov 26, 7:04pm

Thu Nov 26, 6:04pm

Thu Nov 26, 5:04pm

Thu Nov 26, 4:04pm

Thu Nov 26, 2:04pm

Thu Nov 26, 1:04pm

Thu Nov 26, 12:04pm

Thu Nov 26, 11:04am

Thu Nov 26, 10:04am

Thu Nov 26, 9:04am

Thu Nov 26, 8:04am

Thu Nov 26, 7:04am

Thu Nov 26, 6:04am

Thu Nov 26, 5:04am

Thu Nov 26, 4:04am

Thu Nov 26, 3:04am

Thu Nov 26, 2:04am

Thu Nov 26, 1:04am

Thu Nov 26, 12:04am

Wed Nov 25, 11:04pm

Wed Nov 25, 10:04pm

Wed Nov 25, 9:04pm

Wed Nov 25, 8:04pm

Wed Nov 25, 7:04pm

Wed Nov 25, 6:04pm

Wed Nov 25, 5:04pm

Wed Nov 25, 4:04pm

Wed Nov 25, 3:05pm

Wed Nov 25, 2:04pm

Wed Nov 25, 1:04pm

Wed Nov 25, 12:05pm

Wed Nov 25, 11:04am

Wed Nov 25, 10:04am

Wed Nov 25, 9:04am

Wed Nov 25, 8:04am

Wed Nov 25, 7:04am

Wed Nov 25, 6:04am

Wed Nov 25, 5:04am

Wed Nov 25, 4:04am

Wed Nov 25, 3:04am

Wed Nov 25, 2:04am

Wed Nov 25, 1:04am

Wed Nov 25, 12:04am

Tue Nov 24, 11:04pm

Tue Nov 24, 10:04pm

Tue Nov 24, 9:04pm

Tue Nov 24, 8:04pm

Tue Nov 24, 7:04pm

Tue Nov 24, 6:04pm

Tue Nov 24, 5:04pm

Tue Nov 24, 4:05pm

Tue Nov 24, 3:05pm

Tue Nov 24, 2:05pm

Tue Nov 24, 1:05pm

Tue Nov 24, 11:04am

Tue Nov 24, 10:04am

Tue Nov 24, 9:04am

Tue Nov 24, 8:04am

Tue Nov 24, 7:04am

Tue Nov 24, 6:04am

Tue Nov 24, 5:04am

Tue Nov 24, 4:05am

Tue Nov 24, 3:04am

Tue Nov 24, 2:04am

Tue Nov 24, 1:04am

Tue Nov 24, 12:05am

Mon Nov 23, 11:04pm

Mon Nov 23, 10:04pm

Mon Nov 23, 9:04pm

Mon Nov 23, 8:04pm

Mon Nov 23, 7:04pm

Mon Nov 23, 6:04pm

Mon Nov 23, 5:04pm

Mon Nov 23, 4:04pm

Mon Nov 23, 3:04pm

Mon Nov 23, 2:04pm

Mon Nov 23, 1:04pm

Mon Nov 23, 12:04pm

Mon Nov 23, 11:04am

Mon Nov 23, 10:04am

Mon Nov 23, 9:04am

Mon Nov 23, 8:05am

Mon Nov 23, 7:04am

Mon Nov 23, 6:04am

Mon Nov 23, 5:04am

Mon Nov 23, 4:04am

Mon Nov 23, 3:04am

Mon Nov 23, 2:04am

Mon Nov 23, 1:04am

Mon Nov 23, 12:05am

Sun Nov 22, 11:04pm

Sun Nov 22, 10:04pm

Sun Nov 22, 9:04pm

Sun Nov 22, 8:05pm

Sun Nov 22, 7:04pm

Sun Nov 22, 6:04pm

Sun Nov 22, 5:04pm

Sun Nov 22, 4:04pm

Sun Nov 22, 3:04pm

Sun Nov 22, 2:04pm

Sun Nov 22, 1:05pm

Sun Nov 22, 12:04pm

Sun Nov 22, 11:04am

Sun Nov 22, 10:05am

Sun Nov 22, 9:04am

Sun Nov 22, 8:04am

Sun Nov 22, 7:04am

Sun Nov 22, 6:04am

Sun Nov 22, 5:04am

Sun Nov 22, 4:04am

Sun Nov 22, 3:04am

Sun Nov 22, 2:04am

Sun Nov 22, 1:04am

Sun Nov 22, 12:04am

Sat Nov 21, 11:04pm

Sat Nov 21, 10:04pm

Sat Nov 21, 9:04pm

Sat Nov 21, 8:05pm

Sat Nov 21, 7:04pm

Sat Nov 21, 6:04pm

Sat Nov 21, 5:04pm

Sat Nov 21, 4:05pm

Sat Nov 21, 3:04pm

Sat Nov 21, 2:04pm

Sat Nov 21, 1:05pm

Sat Nov 21, 12:04pm

Sat Nov 21, 11:04am

Sat Nov 21, 10:04am

Sat Nov 21, 9:04am

Sat Nov 21, 8:04am

Sat Nov 21, 7:04am

Sat Nov 21, 6:04am

Sat Nov 21, 5:04am

Sat Nov 21, 4:04am

Sat Nov 21, 3:04am

Sat Nov 21, 2:04am

Sat Nov 21, 1:04am

Sat Nov 21, 12:04am

Fri Nov 20, 11:04pm

Fri Nov 20, 10:04pm

Fri Nov 20, 9:04pm

Fri Nov 20, 8:04pm

Fri Nov 20, 7:04pm

Fri Nov 20, 6:04pm

Fri Nov 20, 5:04pm

Fri Nov 20, 4:05pm

Fri Nov 20, 3:05pm

Fri Nov 20, 2:04pm

Fri Nov 20, 1:04pm

Fri Nov 20, 12:04pm

Fri Nov 20, 11:04am

Fri Nov 20, 10:04am

Fri Nov 20, 9:04am

Fri Nov 20, 8:04am

Fri Nov 20, 7:04am

Fri Nov 20, 6:04am

Fri Nov 20, 5:04am

Fri Nov 20, 4:04am

Fri Nov 20, 3:04am

Meta data:

ID: bff5af71-35dd-4cce-b4a8-ecc80f4f2548
Link: https://api.weather.gov/products/bff5af71-35dd-4cce-b4a8-ecc80f4f2548